Preview of NWS' New Version of Forecast
This preview is not operational and should not be used for support decisions.

Regional Weather Roundup (RWR)

Issued by National Weather Service (NWS)

                            
000
ASUS45 KBOI 210710
RWRID 

IDAHO REGIONAL WEATHER ROUNDUP
NATIONAL WEATHER SERVICE BOISE ID
100 AM MDT SUN APR 21 2019

NOTE: "FAIR" INDICATES FEW OR NO CLOUDS BELOW 12000 FEET
WITH NO SIGNIFICANT WEATHER AND/OR OBSTRUCTIONS TO VISIBILITY

IDZ012-014-210800-
SOUTHWEST IDAHO

  
CITY           SKY/WX    TMP DP  RH WIND       PRES   REMARKS
BOISE          CLOUDY    50  43  77 W15       29.86S                  
CALDWELL       CLOUDY    50  43  77 W17       29.89R                  
MOUNTAIN HOME  CLOUDY    45  45 100 NW17      29.87R                  
$$

IDZ016-017-210800-
SOUTHCENTRAL IDAHO

  
CITY           SKY/WX    TMP DP  RH WIND       PRES   REMARKS
BURLEY         LGT RAIN  48  45  89 W10       29.83S                  
JEROME         LGT RAIN  48  47  96 SW15      29.86R                  
TWIN FALLS     LGT RAIN  47  46  97 SW10      29.86S                  
$$

IDZ019>023-210800-
SOUTHEAST IDAHO

  
CITY           SKY/WX    TMP DP  RH WIND       PRES   REMARKS
IDAHO FALLS    CLOUDY    51  41  68 S14       29.82R                  
POCATELLO      CLOUDY    51  44  77 SW15      29.83S                  
REXBURG        CLOUDY    53  41  63 S14       29.79S                  
$$

IDZ006-010-011-018-031-032-210800-
CENTRAL IDAHO MOUNTAINS

  
CITY           SKY/WX    TMP DP  RH WIND       PRES   REMARKS
MCCALL         CLOUDY    39  34  82 NW8G20    29.90R WCI  33          
HAILEY         CLOUDY    43  41  93 W6        29.85S                  
STANLEY          N/A     36  33  89 CALM      29.89                   
SALMON         CLOUDY    49  44  83 E5        29.85R                  
CHALLIS        CLOUDY    45  41  86 CALM      29.85R                  
$$

IDZ002-004-006-007-026-210800-
NORTHERN IDAHO

  
CITY           SKY/WX    TMP DP  RH WIND       PRES   REMARKS
LEWISTON       PTCLDY    51  44  77 S7        29.96R                  
LOWELL           N/A     49  49 100 CALM      29.96                   
COEUR D'ALENE  FOG       39  38  96 CALM      29.98R VSB 1/4          
MULLAN PASS    CLOUDY    35  33  92 N6        29.96R FOG     WCI  30  
$$